Weather History for KDAB - April, 2013

Change the Weather History Date:

Wednesday, April 10, 2013

  Actual Average Record
Temperature  
Mean Temperature 72 °F 68 °F  
Max Temperature 81 °F 78 °F 91 °F (1946)
Min Temperature 62 °F 58 °F 41 °F (1938)
Degree Days  
Heating Degree Days 0 1  
Month to date heating degree days 2 13  
Since 1 July heating degree days 694 792  
Cooling Degree Days 7 4  
Month to date cooling degree days 44 37  
Year to date cooling degree days 214 179  
Growing Degree Days 21 (Base 50)    
Moisture  
Dew Point 64 °F    
Average Humidity 77    
Maximum Humidity 93    
Minimum Humidity 60    
Precipitation  
Precipitation T in 0.08 in 2.45 in (1928)
Month to date precipitation 0.46 0.91  
Year to date precipitation 3.16 10.67  
Sea Level Pressure  
Sea Level Pressure 30.09 in    
Wind  
Wind Speed 5 mph (ESE)    
Max Wind Speed 15 mph    
Max Gust Speed 23 mph    
Visibility 10 miles    
Events      
T = Trace of Precipitation, MM = Missing Value Source: NWS Daily Summary

Daily Weather History Graph

Daily Weather History Graph

Search for Another Location

Airport or City:

Trip Planner

Search our weather history database for the weather conditions in past years. The results will help you decide how hot, cold, wet, or windy it might be!

Date:

Astronomy

Apr. 10, 2013 Rise Set
Actual Time 7:03 AM EDT 7:47 PM EDT
Civil Twilight 6:39 AM EDT 8:12 PM EDT
Nautical Twilight 6:10 AM EDT 8:40 PM EDT
Astronomical Twilight 5:41 AM EDT 9:09 PM EDT
Moon 7:01 AM EDT (4/10) 8:17 PM EDT (4/10)
Length of Visible Light 13h 32m
Length of Day
12h 44m
New Moon, 0% of the Moon is Illuminated
Apr 10
New Moon
Apr 18
First Quarter
Apr 25
Full
May 2
Last Quarter
May 9
New

Hourly Weather History & Observations

Time (EDT) Temp. Dew Point Humidity Pressure Visibility Wind Dir Wind Speed Gust Speed Precip Events Conditions
12:53 AM 64.9 °F 62.1 °F 90% 30.16 in 10.0 mi East 3.5 mph - N/A   Scattered Clouds
1:53 AM 66.9 °F 62.1 °F 84% 30.14 in 10.0 mi Calm Calm - N/A   Scattered Clouds
2:53 AM 66.0 °F 61.0 °F 84% 30.12 in 10.0 mi Calm Calm - N/A   Scattered Clouds
3:53 AM 63.0 °F 60.1 °F 90% 30.10 in 10.0 mi Calm Calm - N/A   Scattered Clouds
4:53 AM 63.0 °F 61.0 °F 93% 30.10 in 10.0 mi Calm Calm - N/A   Scattered Clouds
5:28 AM 64.4 °F 62.6 °F 94% 30.11 in 10.0 mi Calm Calm - N/A   Mostly Cloudy
5:43 AM 64.4 °F 62.6 °F 94% 30.10 in 10.0 mi Calm Calm - N/A   Mostly Cloudy
5:53 AM 64.9 °F 62.1 °F 90% 30.10 in 10.0 mi Calm Calm - N/A   Mostly Cloudy
6:53 AM 63.0 °F 61.0 °F 93% 30.11 in 10.0 mi Calm Calm - N/A   Scattered Clouds
7:53 AM 64.9 °F 63.0 °F 93% 30.11 in 10.0 mi Calm Calm - N/A   Scattered Clouds
8:53 AM 72.0 °F 66.0 °F 81% 30.12 in 10.0 mi Calm Calm - N/A   Scattered Clouds
9:53 AM 75.0 °F 64.9 °F 71% 30.13 in 10.0 mi South 8.1 mph - N/A   Mostly Cloudy
10:53 AM 77.0 °F 63.0 °F 62% 30.13 in 10.0 mi SSE 8.1 mph - N/A   Mostly Cloudy
11:53 AM 75.0 °F 64.0 °F 69% 30.13 in 10.0 mi East 8.1 mph 17.3 mph 0.00 in   Mostly Cloudy
12:53 PM 79.0 °F 64.0 °F 60% 30.12 in 10.0 mi ESE 9.2 mph 17.3 mph N/A   Mostly Cloudy
1:53 PM 79.0 °F 64.9 °F 62% 30.10 in 10.0 mi East 8.1 mph - N/A   Mostly Cloudy
2:53 PM 78.1 °F 64.0 °F 62% 30.09 in 10.0 mi ESE 9.2 mph 17.3 mph N/A   Mostly Cloudy
3:53 PM 79.0 °F 64.0 °F 60% 30.07 in 10.0 mi East 11.5 mph 19.6 mph N/A   Scattered Clouds
4:53 PM 78.1 °F 66.0 °F 66% 30.05 in 10.0 mi East 11.5 mph 18.4 mph N/A   Scattered Clouds
5:53 PM 77.0 °F 66.0 °F 69% 30.05 in 10.0 mi ESE 8.1 mph 16.1 mph N/A   Scattered Clouds
6:53 PM 75.0 °F 66.0 °F 73% 30.05 in 10.0 mi ESE 6.9 mph 16.1 mph N/A   Scattered Clouds
7:53 PM 73.0 °F 66.9 °F 81% 30.04 in 10.0 mi ESE 6.9 mph - N/A   Scattered Clouds
8:53 PM 73.0 °F 66.9 °F 81% 30.04 in 10.0 mi ESE 4.6 mph - N/A   Partly Cloudy
9:53 PM 72.0 °F 68.0 °F 87% 30.05 in 10.0 mi Variable 3.5 mph - N/A   Clear
10:53 PM 72.0 °F 69.1 °F 91% 30.04 in 10.0 mi SSE 4.6 mph - N/A   Clear
11:53 PM 72.0 °F 69.1 °F 91% 30.03 in 9.0 mi Variable 5.8 mph - N/A   Scattered Clouds